| time (UTC) | temp C | wind direction | speed KPH | gust KPH | rain 1hr cm | rain 24hr cm | rain mn cm | humidity % | barometer mb |
| 20260903111544 | 6 | 277 | 6.4 | 8.0 | 0.00 | 0.23 | 0.00 | 85 | 1007.1 |
| 20260903110048 | 7 | 277 | 6.4 | 11.3 | 0.00 | 0.23 | 0.00 | 81 | 1007.2 |
| 20260903104548 | 7 | 171 | 4.8 | 11.3 | 0.00 | 0.23 | 0.00 | 80 | 1007.3 |
| 20260903103050 | 7 | 171 | 4.8 | 12.9 | 0.00 | 0.23 | 0.00 | 80 | 1007.3 |
| 20260903101543 | 7 | 0 | 1.6 | 4.8 | 0.00 | 0.23 | 0.00 | 81 | 1007.2 |
| 20260903100045 | 8 | 297 | 0.0 | 6.4 | 0.00 | 0.23 | 0.00 | 81 | 1007.2 |
| 20260903094545 | 8 | 0 | 0.0 | 1.6 | 0.00 | 0.23 | 0.00 | 81 | 1007.1 |
| 20260903093100 | 8 | 0 | 0.0 | 8.0 | 0.00 | 0.23 | 0.00 | 81 | 1007.1 |
| 20260903091540 | 8 | 297 | 6.4 | 11.3 | 0.00 | 0.23 | 0.00 | 80 | 1007.1 |
| 20260903090051 | 8 | 297 | 3.2 | 8.0 | 0.00 | 0.23 | 0.00 | 80 | 1007.2 |
| 20260903084543 | 9 | 204 | 3.2 | 9.7 | 0.00 | 0.23 | 0.00 | 79 | 1007.0 |
| 20260903083044 | 9 | 228 | 8.0 | 12.9 | 0.00 | 0.23 | 0.00 | 78 | 1006.8 |
| 20260903081547 | 10 | 223 | 4.8 | 9.7 | 0.00 | 0.23 | 0.00 | 78 | 1006.9 |
| 20260903080043 | 10 | 166 | 4.8 | 8.0 | 0.00 | 0.23 | 0.00 | 79 | 1006.9 |
| 20260903074543 | 10 | 166 | 1.6 | 12.9 | 0.00 | 0.23 | 0.00 | 79 | 1006.5 |
| 20260903073046 | 10 | 166 | 3.2 | 12.9 | 0.00 | 0.23 | 0.00 | 79 | 1006.4 |
| 20260903071545 | 11 | 208 | 0.0 | 9.7 | 0.00 | 0.23 | 0.00 | 78 | 1006.6 |
| 20260903070045 | 11 | 261 | 8.0 | 12.9 | 0.00 | 0.23 | 0.00 | 75 | 1006.4 |
| 20260903064542 | 11 | 210 | 8.0 | 14.5 | 0.00 | 0.23 | 0.00 | 76 | 1006.5 |
| 20260903063109 | 10 | 176 | 4.8 | 11.3 | 0.00 | 0.23 | 0.00 | 79 | 1006.8 |
| 20260903061543 | 10 | 203 | 3.2 | 8.0 | 0.00 | 0.23 | 0.00 | 80 | 1006.8 |
| 20260903060049 | 11 | 217 | 1.6 | 8.0 | 0.00 | 0.23 | 0.00 | 79 | 1006.7 |
| 20260903054545 | 11 | 224 | 6.4 | 14.5 | 0.00 | 0.23 | 0.23 | 78 | 1006.7 |
| 20260903053044 | 11 | 193 | 9.7 | 16.1 | 0.00 | 0.23 | 0.23 | 77 | 1006.8 |
| 20260903051548 | 11 | 206 | 9.7 | 22.5 | 0.00 | 0.23 | 0.23 | 74 | 1006.8 |
| 20260903050107 | 12 | 204 | 14.5 | 29.0 | 0.00 | 0.23 | 0.23 | 71 | 1006.9 |
| 20260903044543 | 12 | 240 | 29.0 | 46.7 | 0.00 | 0.23 | 0.23 | 68 | 1007.1 |
| 20260903043044 | 12 | 223 | 19.3 | 37.0 | 0.00 | 0.23 | 0.23 | 71 | 1007.2 |
| 20260903041552 | 10 | 219 | 16.1 | 33.8 | 0.00 | 0.23 | 0.23 | 78 | 1007.2 |
| 20260903040054 | 10 | 214 | 8.0 | 16.1 | 0.00 | 0.23 | 0.23 | 77 | 1007.1 |
| 20260903034544 | 11 | 209 | 11.3 | 19.3 | 0.00 | 0.23 | 0.23 | 77 | 1007.1 |
| 20260903033051 | 11 | 223 | 11.3 | 19.3 | 0.00 | 0.23 | 0.23 | 77 | 1007.0 |
| 20260903031545 | 11 | 197 | 6.4 | 11.3 | 0.00 | 0.23 | 0.23 | 78 | 1007.1 |
| 20260903030048 | 12 | 227 | 9.7 | 20.9 | 0.00 | 0.23 | 0.23 | 75 | 1006.8 |
| 20260903024541 | 12 | 252 | 12.9 | 32.2 | 0.00 | 0.23 | 0.23 | 73 | 1006.7 |
| 20260903023051 | 12 | 245 | 17.7 | 45.1 | 0.00 | 0.23 | 0.23 | 72 | 1006.8 |
| 20260903021548 | 13 | 220 | 30.6 | 45.1 | 0.00 | 0.23 | 0.23 | 78 | 1007.3 |
| 20260903020049 | 13 | 210 | 14.5 | 22.5 | 0.00 | 0.23 | 0.23 | 80 | 1006.5 |
| 20260903014550 | 14 | 183 | 12.9 | 22.5 | 0.00 | 0.23 | 0.23 | 80 | 1006.7 |
| 20260903013050 | 14 | 168 | 12.9 | 17.7 | 0.03 | 0.23 | 0.23 | 77 | 1006.8 |
| 20260903011559 | 15 | 106 | 6.4 | 12.9 | 0.03 | 0.23 | 0.23 | 79 | 1006.6 |
| 20260903010043 | 14 | 50 | 1.6 | 9.7 | 0.05 | 0.23 | 0.23 | 79 | 1006.1 |
| 20260903004544 | 14 | 40 | 6.4 | 19.3 | 0.05 | 0.23 | 0.23 | 82 | 1005.8 |
| 20260903003045 | 14 | 25 | 4.8 | 12.9 | 0.10 | 0.20 | 0.20 | 79 | 1006.7 |
| 20260903001546 | 15 | 0 | 0.0 | 12.9 | 0.13 | 0.20 | 0.20 | 75 | 1007.5 |
| 20260903000044 | 15 | 182 | 11.3 | 46.7 | 0.18 | 0.18 | 0.18 | 73 | 1008.1 |
| 20260902234546 | 14 | 207 | 19.3 | 48.3 | 0.18 | 0.18 | 0.18 | 74 | 1008.2 |
| 20260902233054 | 14 | 172 | 40.2 | 69.2 | 0.10 | 0.10 | 0.10 | 72 | 1007.5 |
| 20260902231554 | 15 | 199 | 32.2 | 69.2 | 0.08 | 0.08 | 0.08 | 70 | 1006.6 |
| 20260902230044 | 22 | 173 | 67.6 | 98.2 | 0.00 | 0.00 | 0.00 | 36 | 1006.4 |
| 20260902224552 | 26 | 187 | 9.7 | 20.9 | 0.00 | 0.00 | 0.00 | 23 | 1003.2 |
| 20260902223048 | 27 | 225 | 8.0 | 17.7 | 0.00 | 0.00 | 0.00 | 26 | 1003.2 |
| 20260902221549 | 27 | 243 | 4.8 | 17.7 | 0.00 | 0.00 | 0.00 | 26 | 1003.5 |
| 20260902220044 | 28 | 169 | 6.4 | 22.5 | 0.00 | 0.00 | 0.00 | 26 | 1003.8 |
| 20260902214544 | 27 | 127 | 9.7 | 24.1 | 0.00 | 0.00 | 0.00 | 26 | 1003.9 |
| 20260902213053 | 27 | 168 | 16.1 | 27.4 | 0.00 | 0.00 | 0.00 | 27 | 1003.9 |
| 20260902211553 | 27 | 204 | 17.7 | 30.6 | 0.00 | 0.00 | 0.00 | 27 | 1004.1 |
| 20260902210044 | 26 | 208 | 8.0 | 29.0 | 0.00 | 0.00 | 0.00 | 28 | 1004.6 |
| 20260902204545 | 26 | 183 | 14.5 | 25.7 | 0.00 | 0.00 | 0.00 | 30 | 1005.0 |
| 20260902203046 | 26 | 187 | 16.1 | 29.0 | 0.00 | 0.00 | 0.00 | 30 | 1005.2 |
| 20260902201543 | 26 | 129 | 9.7 | 24.1 | 0.00 | 0.00 | 0.00 | 30 | 1005.3 |
| 20260902200044 | 25 | 182 | 11.3 | 24.1 | 0.00 | 0.00 | 0.00 | 32 | 1005.5 |
| 20260902194544 | 25 | 170 | 19.3 | 27.4 | 0.00 | 0.00 | 0.00 | 33 | 1005.7 |
| 20260902193048 | 25 | 189 | 16.1 | 24.1 | 0.00 | 0.00 | 0.00 | 34 | 1005.7 |
| 20260902191545 | 25 | 223 | 22.5 | 32.2 | 0.00 | 0.00 | 0.00 | 34 | 1005.8 |
| 20260902190046 | 25 | 178 | 12.9 | 30.6 | 0.00 | 0.00 | 0.00 | 36 | 1005.8 |
| 20260902184552 | 24 | 183 | 12.9 | 30.6 | 0.00 | 0.00 | 0.00 | 37 | 1006.1 |
| 20260902183047 | 23 | 177 | 14.5 | 25.7 | 0.00 | 0.00 | 0.00 | 39 | 1006.5 |
| 20260902181546 | 22 | 195 | 19.3 | 29.0 | 0.00 | 0.00 | 0.00 | 39 | 1006.7 |
| 20260902180103 | 22 | 182 | 17.7 | 30.6 | 0.00 | 0.00 | 0.00 | 40 | 1006.7 |
| 20260902174544 | 22 | 169 | 24.1 | 37.0 | 0.00 | 0.00 | 0.00 | 41 | 1006.8 |
| 20260902173050 | 21 | 191 | 25.7 | 37.0 | 0.00 | 0.00 | 0.00 | 41 | 1007.0 |
| 20260902171548 | 21 | 195 | 19.3 | 29.0 | 0.00 | 0.00 | 0.00 | 42 | 1006.9 |
| 20260902170044 | 21 | 187 | 16.1 | 25.7 | 0.00 | 0.00 | 0.00 | 42 | 1006.7 |
| 20260902164545 | 21 | 187 | 14.5 | 24.1 | 0.00 | 0.00 | 0.00 | 42 | 1006.6 |
| 20260902163056 | 21 | 202 | 14.5 | 22.5 | 0.00 | 0.00 | 0.00 | 42 | 1006.7 |
| 20260902161553 | 21 | 183 | 12.9 | 22.5 | 0.00 | 0.00 | 0.00 | 45 | 1007.0 |
| 20260902160042 | 20 | 207 | 16.1 | 22.5 | 0.00 | 0.00 | 0.00 | 46 | 1007.3 |
| 20260902154543 | 19 | 207 | 11.3 | 20.9 | 0.00 | 0.00 | 0.00 | 48 | 1007.1 |
| 20260902153045 | 17 | 204 | 11.3 | 17.7 | 0.00 | 0.00 | 0.00 | 50 | 1007.2 |
| 20260902151544 | 17 | 194 | 8.0 | 12.9 | 0.00 | 0.00 | 0.00 | 50 | 1007.5 |
| 20260902150043 | 16 | 209 | 8.0 | 12.9 | 0.00 | 0.00 | 0.00 | 51 | 1007.7 |
| 20260902144542 | 16 | 192 | 8.0 | 12.9 | 0.00 | 0.00 | 0.00 | 52 | 1007.9 |
| 20260902143046 | 16 | 206 | 8.0 | 12.9 | 0.00 | 0.00 | 0.00 | 54 | 1008.0 |
| 20260902141543 | 15 | 183 | 6.4 | 12.9 | 0.00 | 0.00 | 0.00 | 55 | 1008.2 |
| 20260902140043 | 15 | 159 | 3.2 | 11.3 | 0.00 | 0.00 | 0.00 | 58 | 1008.2 |
| 20260902134548 | 13 | 266 | 1.6 | 4.8 | 0.00 | 0.00 | 0.00 | 61 | 1007.9 |
| 20260902133044 | 13 | 264 | 3.2 | 6.4 | 0.00 | 0.00 | 0.00 | 62 | 1007.6 |
| 20260902131545 | 12 | 211 | 8.0 | 17.7 | 0.00 | 0.00 | 0.00 | 63 | 1007.5 |
| 20260902130046 | 12 | 190 | 11.3 | 19.3 | 0.00 | 0.00 | 0.00 | 63 | 1007.5 |
| 20260902124548 | 12 | 236 | 6.4 | 11.3 | 0.00 | 0.00 | 0.00 | 62 | 1006.9 |
| 20260902123054 | 12 | 283 | 6.4 | 11.3 | 0.00 | 0.00 | 0.00 | 62 | 1006.9 |
| 20260902121540 | 12 | 268 | 8.0 | 11.3 | 0.00 | 0.00 | 0.00 | 62 | 1007.3 |
| 20260902120043 | 11 | 270 | 8.0 | 11.3 | 0.00 | 0.00 | 0.00 | 64 | 1007.6 |
| 20260902114546 | 11 | 247 | 3.2 | 8.0 | 0.00 | 0.00 | 0.00 | 66 | 1008.0 |
| 20260902113047 | 11 | 245 | 3.2 | 11.3 | 0.00 | 0.00 | 0.00 | 66 | 1008.3 |